TimeMDT,TemperatureF,Dew PointF,Humidity,Sea Level PressureIn,VisibilityMPH,Wind Direction,Wind SpeedMPH,Gust SpeedMPH,PrecipitationIn,Events,Conditions,WindDirDegrees,DateUTC
12:53 AM,30.0,14.0,51,30.02,10.0,ENE,3.5,-,N/A,,Clear,60,2013-03-19 06:53:00
1:53 AM,30.9,14.0,50,30.01,10.0,Calm,Calm,-,N/A,,Clear,0,2013-03-19 07:53:00
2:53 AM,30.0,16.0,56,30.02,10.0,Calm,Calm,-,N/A,,Clear,0,2013-03-19 08:53:00
3:53 AM,28.0,-9999,N/A,30.02,10.0,East,5.8,-,N/A,,Clear,90,2013-03-19 09:53:00
4:53 AM,30.0,16.0,56,30.00,10.0,Calm,Calm,-,N/A,,Clear,0,2013-03-19 10:53:00
5:53 AM,28.9,17.1,61,30.02,10.0,Calm,Calm,-,N/A,,Clear,0,2013-03-19 11:53:00
6:53 AM,30.0,17.1,59,30.04,10.0,NNE,3.5,-,N/A,,Mostly Cloudy,20,2013-03-19 12:53:00
7:53 AM,30.0,19.0,64,30.06,10.0,Calm,Calm,-,N/A,,Partly Cloudy,0,2013-03-19 13:53:00
8:53 AM,33.1,-9999,N/A,30.09,10.0,Calm,Calm,-,N/A,,Clear,0,2013-03-19 14:53:00
9:53 AM,37.0,-9999,N/A,30.13,10.0,Calm,Calm,-,N/A,,Clear,0,2013-03-19 15:53:00
10:53 AM,45.0,18.0,34,30.09,10.0,WSW,4.6,-,N/A,,Clear,250,2013-03-19 16:53:00
11:53 AM,48.9,-9999,N/A,30.07,10.0,West,11.5,-,N/A,,Clear,260,2013-03-19 17:53:00
12:53 PM,51.1,-9999,N/A,30.06,10.0,WSW,10.4,17.3,N/A,,Clear,250,2013-03-19 18:53:00
1:53 PM,54.0,10.9,18,30.03,10.0,SW,9.2,19.6,N/A,,Clear,230,2013-03-19 19:53:00
2:53 PM,55.0,12.9,19,30.00,10.0,West,10.4,19.6,N/A,,Clear,260,2013-03-19 20:53:00
3:53 PM,55.0,10.9,17,30.01,10.0,West,11.5,-,N/A,,Partly Cloudy,280,2013-03-19 21:53:00
4:53 PM,55.0,12.0,18,30.02,10.0,West,18.4,26.5,N/A,,Clear,280,2013-03-19 22:53:00
5:04 PM,55.4,12.2,18,30.06,10.0,West,23.0,28.8,N/A,,Clear,260,2013-03-19 23:04:00
5:53 PM,54.0,9.0,17,30.03,10.0,West,17.3,-,N/A,,Clear,280,2013-03-19 23:53:00
6:53 PM,50.0,8.1,18,30.06,10.0,WNW,13.8,-,N/A,,Clear,290,2013-03-20 00:53:00
7:53 PM,46.0,-9999,N/A,30.11,10.0,West,15.0,-,N/A,,Clear,280,2013-03-20 01:53:00
8:53 PM,42.1,-9999,N/A,30.15,10.0,West,6.9,-,N/A,,Clear,260,2013-03-20 02:53:00
9:53 PM,39.0,-9999,N/A,30.17,10.0,West,4.6,-,N/A,,Clear,270,2013-03-20 03:53:00
10:53 PM,37.9,-9999,N/A,30.15,10.0,WSW,9.2,-,N/A,,Clear,250,2013-03-20 04:53:00
11:53 PM,37.0,8.1,30,30.16,10.0,Variable,3.5,-,N/A,,Clear,0,2013-03-20 05:53:00